ORBCOMM FM 16 DEB, 44023

Orbit data source: Space-Track

ORBCOMM FM 16 DEB, 44023 is space debris in LEO originally from a launch on Sun, 02 Aug 1998 UTC launched from the Pegasus Launch, Eastern Range Air Space (ERAS). Debris objects in space refer to the collection of defunct objects orbiting the Earth. Examples of debris include non-operational satellites, rocket bodies, and fragments generated from explosions, collisions, or faulty payload assembly.

Loading next visibility...
Identifier
44023, 1998-046S
Orbit
LEO
Country
Flag of USUS / ORB
Related business
Manufacturer
OSC-Germantown
Mission
Spacecraft
Bus & Motor
MICROSTAR, Unknown motor
Mass
Unknown
Launch date (UTC)
1998-08-02 (28 years ago)
Launch vehicle
Unknown
Launch site
Pegasus Launch, Eastern Range Air Space (ERAS)
Object type
Payload
Rocket body
Debris
Shape & HBR
Unknown shape, 0.1 m
Radar Cross Section
Small (<0.1 m²)

Expand to show TLE details & history
Last TLE update: 2 days ago

TLE from 2 days ago
0 ORBCOMM FM 16 DEB
1 44023U 98046S   26036.84283945  .00001099  00000-0  43288-3 0  9997
2 44023  45.0025 203.7997 0007669 165.8873 194.2189 14.34820127370606
Epoch: 2026-02-05T20:13Z
TLE epoch observation values (Epoch: 2026-02-05T20:13:41.328Z)
Latitude
-0.00005°
Longitude
124.38819°
Altitude
780.981 km
Speed
7.462 km/s
True Right ascension
13h 35m 11s
True Declination
0° 00' 00"
Sunlit
Object was in daylight at epoch
Visualization orbit readout
Latitude
Unknown
Longitude
Unknown
Altitude
Unknown
Speed
Unknown
Apparent Right ascension
Unknown
Apparent Declination
Unknown
Sunlit
N/A
Visualization observer readout
Local Sidereal Time
11:13:36
Azimuth
Unknown
Elevation
Unknown
Doppler factor
Unknown
Orbital elements
Apogee altitude
782.695 km
Perigee altitude
771.72 km
Semi-major axis
7,155.345 km
Eccentricity
0.00077
Inclination
45.0025°
RAAN
203.7997°
Arg. of periapsis
165.8873°
True anomaly
194.19733°
Mean anomaly
194.2189°
Eccentric anomaly
194.20812°
Mean motion
3.58589 °/min
Orbital period
100.39 mins
BSTAR
0.00043288
Loading maneuver chart data...
Computing Atmospheric mass density...
Loading historical data...
Loading historical data...
Loading historical data...
Loading historical data...
Loading historical data...
Loading historical data...
Loading historical data...

Documentation

Showing up to 5 results
|